| time (UTC) | temp C | wind direction | speed KPH | gust KPH | rain 1hr cm | rain 24hr cm | rain mn cm | humidity % | barometer mb |
| 20260503193204 | 16 | 232 | 9.7 | 24.1 | 0.00 | 0.00 | 0.00 | 36 | 1008.8 |
| 20260503192645 | 16 | 226 | 4.8 | 17.7 | 0.00 | 0.00 | 0.00 | 37 | 1008.8 |
| 20260503192143 | 16 | 207 | 6.4 | 25.7 | 0.00 | 0.00 | 0.00 | 37 | 1008.9 |
| 20260503191647 | 16 | 267 | 11.3 | 35.4 | 0.00 | 0.00 | 0.00 | 36 | 1009.0 |
| 20260503191146 | 16 | 254 | 16.1 | 35.4 | 0.00 | 0.00 | 0.00 | 35 | 1009.2 |
| 20260503190647 | 16 | 293 | 16.1 | 33.8 | 0.00 | 0.00 | 0.00 | 34 | 1009.3 |
| 20260503190132 | 16 | 270 | 14.5 | 30.6 | 0.00 | 0.00 | 0.00 | 33 | 1009.0 |
| 20260503185635 | 17 | 222 | 9.7 | 32.2 | 0.00 | 0.00 | 0.00 | 35 | 1009.1 |
| 20260503185132 | 16 | 251 | 9.7 | 32.2 | 0.00 | 0.00 | 0.00 | 36 | 1009.1 |
| 20260503184703 | 16 | 297 | 8.0 | 32.2 | 0.00 | 0.00 | 0.00 | 36 | 1009.2 |
| 20260503184139 | 16 | 278 | 14.5 | 29.0 | 0.00 | 0.00 | 0.00 | 36 | 1009.4 |
| 20260503183642 | 16 | 275 | 12.9 | 30.6 | 0.00 | 0.00 | 0.00 | 37 | 1009.4 |
| 20260503183145 | 15 | 242 | 12.9 | 32.2 | 0.00 | 0.00 | 0.00 | 37 | 1009.6 |
| 20260503182646 | 15 | 290 | 11.3 | 32.2 | 0.00 | 0.00 | 0.00 | 37 | 1009.8 |
| 20260503182210 | 15 | 260 | 4.8 | 27.4 | 0.00 | 0.00 | 0.00 | 38 | 1009.8 |
| 20260503181632 | 15 | 236 | 14.5 | 25.7 | 0.00 | 0.00 | 0.00 | 37 | 1009.9 |
| 20260503181150 | 15 | 270 | 14.5 | 27.4 | 0.00 | 0.00 | 0.00 | 38 | 1010.0 |
| 20260503180654 | 15 | 250 | 11.3 | 29.0 | 0.00 | 0.00 | 0.00 | 38 | 1010.1 |
| 20260503180138 | 15 | 320 | 14.5 | 29.0 | 0.00 | 0.00 | 0.00 | 38 | 1010.1 |
| 20260503175642 | 15 | 310 | 8.0 | 20.9 | 0.00 | 0.00 | 0.00 | 39 | 1010.1 |
| 20260503175139 | 15 | 226 | 4.8 | 19.3 | 0.00 | 0.00 | 0.00 | 39 | 1010.1 |
| 20260503174644 | 15 | 278 | 9.7 | 16.1 | 0.00 | 0.00 | 0.00 | 39 | 1010.2 |
| 20260503174139 | 15 | 248 | 8.0 | 37.0 | 0.00 | 0.00 | 0.00 | 40 | 1010.3 |
| 20260503173642 | 15 | 255 | 9.7 | 32.2 | 0.00 | 0.00 | 0.00 | 40 | 1010.3 |
| 20260503173147 | 15 | 262 | 11.3 | 22.5 | 0.00 | 0.00 | 0.00 | 41 | 1010.4 |
| 20260503172647 | 15 | 288 | 8.0 | 22.5 | 0.00 | 0.00 | 0.00 | 40 | 1010.3 |
| 20260503172143 | 15 | 297 | 6.4 | 20.9 | 0.00 | 0.00 | 0.00 | 41 | 1010.5 |
| 20260503171646 | 14 | 205 | 6.4 | 20.9 | 0.00 | 0.00 | 0.00 | 41 | 1010.6 |
| 20260503171146 | 13 | 233 | 12.9 | 29.0 | 0.00 | 0.00 | 0.00 | 40 | 1010.7 |
| 20260503170647 | 13 | 268 | 14.5 | 38.6 | 0.00 | 0.00 | 0.00 | 41 | 1010.8 |
| 20260503170131 | 13 | 194 | 14.5 | 38.6 | 0.00 | 0.00 | 0.00 | 41 | 1011.0 |
| 20260503160148 | 12 | 207 | 6.4 | 27.4 | 0.00 | 0.00 | 0.00 | 42 | 1011.7 |
| 20260503150647 | 13 | 305 | 16.1 | 37.0 | 0.00 | 0.00 | 0.00 | 38 | 1011.8 |
| 20260503150131 | 13 | 296 | 14.5 | 27.4 | 0.00 | 0.00 | 0.00 | 39 | 1011.7 |
| 20260503140132 | 11 | 284 | 4.8 | 22.5 | 0.00 | 0.00 | 0.00 | 46 | 1011.9 |
| 20260503131134 | 8 | 316 | 9.7 | 22.5 | 0.00 | 0.00 | 0.00 | 51 | 1012.1 |
| 20260503130637 | 8 | 252 | 11.3 | 25.7 | 0.00 | 0.00 | 0.00 | 51 | 1012.1 |
| 20260503130156 | 8 | 297 | 11.3 | 25.7 | 0.00 | 0.00 | 0.00 | 51 | 1012.2 |
| 20260503120150 | 6 | 258 | 4.8 | 22.5 | 0.00 | 0.00 | 0.00 | 54 | 1012.2 |
| 20260503110640 | 4 | 251 | 1.6 | 6.4 | 0.00 | 0.00 | 0.00 | 56 | 1012.2 |
| 20260503110146 | 4 | 256 | 3.2 | 6.4 | 0.00 | 0.00 | 0.00 | 55 | 1012.1 |
| 20260503100132 | 3 | 249 | 1.6 | 9.7 | 0.00 | 0.00 | 0.00 | 55 | 1012.7 |
| 20260503090140 | 3 | 260 | 1.6 | 8.0 | 0.00 | 0.00 | 0.00 | 54 | 1013.1 |
| 20260503081148 | 3 | 255 | 3.2 | 11.3 | 0.00 | 0.00 | 0.00 | 53 | 1013.3 |
| 20260503080631 | 3 | 278 | 4.8 | 11.3 | 0.00 | 0.00 | 0.00 | 54 | 1013.4 |
| 20260503080134 | 3 | 269 | 4.8 | 11.3 | 0.00 | 0.00 | 0.00 | 54 | 1013.5 |
| 20260503072632 | 3 | 278 | 3.2 | 8.0 | 0.00 | 0.00 | 0.00 | 55 | 1013.6 |
| 20260503072133 | 3 | 276 | 4.8 | 8.0 | 0.00 | 0.00 | 0.00 | 56 | 1013.6 |
| 20260503071639 | 3 | 306 | 3.2 | 9.7 | 0.00 | 0.00 | 0.00 | 56 | 1013.5 |
| 20260503071139 | 3 | 296 | 3.2 | 9.7 | 0.00 | 0.00 | 0.00 | 56 | 1013.5 |
| 20260503070641 | 3 | 277 | 3.2 | 6.4 | 0.00 | 0.00 | 0.00 | 56 | 1013.6 |
| 20260503070143 | 3 | 259 | 3.2 | 11.3 | 0.00 | 0.00 | 0.00 | 56 | 1013.6 |
| 20260503060144 | 3 | 255 | 1.6 | 4.8 | 0.00 | 0.00 | 0.00 | 56 | 1014.0 |
| 20260503054711 | 3 | 265 | 3.2 | 6.4 | 0.00 | 0.00 | 0.00 | 57 | 1014.1 |
| 20260503054149 | 3 | 278 | 1.6 | 6.4 | 0.00 | 0.00 | 0.00 | 57 | 1014.1 |
| 20260503053630 | 3 | 278 | 3.2 | 8.0 | 0.00 | 0.00 | 0.00 | 58 | 1014.2 |
| 20260503053151 | 3 | 264 | 3.2 | 8.0 | 0.00 | 0.00 | 0.00 | 58 | 1014.2 |
| 20260503052634 | 3 | 267 | 0.0 | 4.8 | 0.00 | 0.00 | 0.00 | 58 | 1014.2 |
| 20260503052135 | 3 | 243 | 1.6 | 6.4 | 0.00 | 0.00 | 0.00 | 58 | 1014.3 |
| 20260503051636 | 3 | 248 | 1.6 | 6.4 | 0.00 | 0.00 | 0.00 | 58 | 1014.3 |
| 20260503051137 | 3 | 252 | 1.6 | 3.2 | 0.00 | 0.00 | 0.00 | 58 | 1014.3 |
| 20260503050640 | 3 | 250 | 0.0 | 4.8 | 0.00 | 0.00 | 0.00 | 58 | 1014.3 |
| 20260503050145 | 3 | 264 | 1.6 | 6.4 | 0.00 | 0.00 | 0.00 | 58 | 1014.3 |
| 20260503045649 | 3 | 262 | 3.2 | 6.4 | 0.00 | 0.00 | 0.00 | 59 | 1014.4 |
| 20260503045148 | 3 | 256 | 1.6 | 3.2 | 0.00 | 0.00 | 0.00 | 59 | 1014.3 |
| 20260503044632 | 3 | 242 | 0.0 | 3.2 | 0.00 | 0.00 | 0.00 | 60 | 1014.4 |
| 20260503044133 | 3 | 252 | 1.6 | 6.4 | 0.00 | 0.00 | 0.00 | 60 | 1014.4 |
| 20260503043635 | 3 | 274 | 1.6 | 6.4 | 0.00 | 0.00 | 0.00 | 60 | 1014.4 |
| 20260503043156 | 3 | 247 | 1.6 | 3.2 | 0.00 | 0.00 | 0.00 | 60 | 1014.4 |
| 20260503042706 | 3 | 251 | 0.0 | 3.2 | 0.00 | 0.00 | 0.00 | 60 | 1014.4 |
| 20260503042210 | 3 | 247 | 1.6 | 3.2 | 0.00 | 0.00 | 0.00 | 60 | 1014.4 |
| 20260503041631 | 3 | 245 | 1.6 | 3.2 | 0.00 | 0.00 | 0.00 | 60 | 1014.5 |
| 20260503041149 | 3 | 264 | 0.0 | 3.2 | 0.00 | 0.00 | 0.00 | 60 | 1014.5 |
| 20260503040631 | 3 | 254 | 0.0 | 3.2 | 0.00 | 0.00 | 0.00 | 61 | 1014.5 |
| 20260503040151 | 3 | 234 | 0.0 | 1.6 | 0.00 | 0.00 | 0.00 | 61 | 1014.5 |
| 20260503035653 | 3 | 243 | 0.0 | 1.6 | 0.00 | 0.00 | 0.00 | 61 | 1014.5 |
| 20260503035149 | 3 | 241 | 0.0 | 1.6 | 0.00 | 0.00 | 0.00 | 61 | 1014.6 |
| 20260503034633 | 3 | 240 | 0.0 | 1.6 | 0.00 | 0.00 | 0.00 | 61 | 1014.6 |
| 20260503034131 | 3 | 237 | 0.0 | 1.6 | 0.00 | 0.00 | 0.00 | 61 | 1014.6 |
| 20260503033635 | 3 | 248 | 0.0 | 0.0 | 0.00 | 0.00 | 0.00 | 61 | 1014.6 |
| 20260503033142 | 3 | 249 | 0.0 | 0.0 | 0.00 | 0.00 | 0.00 | 61 | 1014.7 |
| 20260503032645 | 3 | 249 | 0.0 | 0.0 | 0.00 | 0.00 | 0.00 | 61 | 1014.7 |
| 20260503032145 | 3 | 248 | 0.0 | 0.0 | 0.00 | 0.00 | 0.00 | 61 | 1014.7 |
| 20260503031649 | 3 | 248 | 0.0 | 0.0 | 0.00 | 0.00 | 0.00 | 61 | 1014.7 |
| 20260503031150 | 3 | 248 | 0.0 | 0.0 | 0.00 | 0.00 | 0.00 | 61 | 1014.8 |
| 20260503030632 | 3 | 248 | 0.0 | 0.0 | 0.00 | 0.00 | 0.00 | 60 | 1014.7 |
| 20260503030138 | 3 | 248 | 0.0 | 0.0 | 0.00 | 0.00 | 0.00 | 60 | 1014.8 |
| 20260503025708 | 3 | 248 | 0.0 | 0.0 | 0.00 | 0.00 | 0.00 | 60 | 1014.8 |
| 20260503025142 | 3 | 248 | 0.0 | 0.0 | 0.00 | 0.00 | 0.00 | 61 | 1014.8 |
| 20260503024649 | 3 | 248 | 0.0 | 0.0 | 0.00 | 0.00 | 0.00 | 61 | 1014.9 |
| 20260503024148 | 3 | 248 | 0.0 | 0.0 | 0.00 | 0.00 | 0.00 | 60 | 1014.9 |
| 20260503023632 | 3 | 248 | 0.0 | 0.0 | 0.00 | 0.00 | 0.00 | 61 | 1014.9 |
| 20260503023153 | 3 | 248 | 0.0 | 0.0 | 0.00 | 0.00 | 0.00 | 61 | 1015.0 |
| 20260503022634 | 3 | 248 | 0.0 | 0.0 | 0.00 | 0.00 | 0.00 | 60 | 1015.0 |
| 20260503022200 | 3 | 248 | 0.0 | 0.0 | 0.00 | 0.00 | 0.00 | 60 | 1015.0 |
| 20260503021708 | 3 | 248 | 0.0 | 0.0 | 0.00 | 0.00 | 0.00 | 60 | 1015.0 |
| 20260503021138 | 3 | 248 | 0.0 | 0.0 | 0.00 | 0.00 | 0.00 | 60 | 1015.0 |
| 20260503020643 | 3 | 248 | 0.0 | 0.0 | 0.00 | 0.00 | 0.00 | 60 | 1014.9 |
| 20260503020148 | 3 | 248 | 0.0 | 0.0 | 0.00 | 0.00 | 0.00 | 61 | 1014.9 |
| 20260503015632 | 3 | 248 | 0.0 | 0.0 | 0.00 | 0.00 | 0.00 | 61 | 1014.9 |
| 20260503015133 | 3 | 248 | 0.0 | 0.0 | 0.00 | 0.00 | 0.00 | 61 | 1014.8 |
| 20260503014636 | 3 | 248 | 0.0 | 0.0 | 0.00 | 0.00 | 0.00 | 62 | 1014.9 |
| 20260503014130 | 3 | 248 | 0.0 | 0.0 | 0.00 | 0.00 | 0.00 | 60 | 1014.8 |
| 20260503013634 | 3 | 248 | 0.0 | 0.0 | 0.00 | 0.00 | 0.00 | 61 | 1014.8 |
| 20260503013138 | 3 | 248 | 0.0 | 0.0 | 0.00 | 0.00 | 0.00 | 60 | 1014.8 |
| 20260503012642 | 3 | 248 | 0.0 | 0.0 | 0.00 | 0.00 | 0.00 | 60 | 1014.7 |
| 20260503012141 | 4 | 248 | 0.0 | 0.0 | 0.00 | 0.00 | 0.00 | 59 | 1014.7 |
| 20260503011645 | 4 | 248 | 0.0 | 0.0 | 0.00 | 0.00 | 0.00 | 59 | 1014.7 |
| 20260503011210 | 5 | 248 | 0.0 | 0.0 | 0.00 | 0.00 | 0.00 | 59 | 1014.7 |
| 20260503010634 | 5 | 248 | 0.0 | 0.0 | 0.00 | 0.00 | 0.00 | 58 | 1014.7 |
| 20260503010154 | 5 | 248 | 0.0 | 0.0 | 0.00 | 0.00 | 0.00 | 57 | 1014.6 |
| 20260503005656 | 5 | 248 | 0.0 | 0.0 | 0.00 | 0.00 | 0.00 | 54 | 1014.6 |
| 20260503005131 | 6 | 248 | 0.0 | 0.0 | 0.00 | 0.00 | 0.00 | 52 | 1014.7 |
| 20260503004637 | 6 | 248 | 0.0 | 0.0 | 0.00 | 0.00 | 0.00 | 52 | 1014.6 |
| 20260503004139 | 6 | 248 | 0.0 | 0.0 | 0.00 | 0.00 | 0.00 | 50 | 1014.6 |
| 20260503003641 | 6 | 248 | 0.0 | 0.0 | 0.00 | 0.00 | 0.00 | 49 | 1014.6 |
| 20260503003146 | 6 | 248 | 0.0 | 0.0 | 0.00 | 0.00 | 0.00 | 49 | 1014.6 |
| 20260503002649 | 7 | 248 | 0.0 | 0.0 | 0.00 | 0.00 | 0.00 | 48 | 1014.5 |
| 20260503002148 | 7 | 248 | 0.0 | 0.0 | 0.00 | 0.00 | 0.00 | 47 | 1014.5 |
| 20260503001632 | 7 | 278 | 0.0 | 0.0 | 0.00 | 0.00 | 0.00 | 46 | 1014.5 |
| 20260503001133 | 7 | 278 | 0.0 | 3.2 | 0.00 | 0.00 | 0.00 | 46 | 1014.5 |
| 20260503000703 | 7 | 280 | 0.0 | 3.2 | 0.00 | 0.00 | 0.00 | 46 | 1014.5 |
| 20260503000147 | 7 | 266 | 0.0 | 3.2 | 0.00 | 0.00 | 0.00 | 45 | 1014.5 |
| 20260502235631 | 7 | 266 | 1.6 | 3.2 | 0.00 | 0.00 | 0.00 | 44 | 1014.6 |
| 20260502235144 | 7 | 276 | 0.0 | 3.2 | 0.00 | 0.00 | 0.00 | 44 | 1014.5 |
| 20260502234648 | 8 | 277 | 1.6 | 6.4 | 0.00 | 0.00 | 0.00 | 44 | 1014.5 |
| 20260502234147 | 8 | 294 | 3.2 | 8.0 | 0.00 | 0.00 | 0.00 | 43 | 1014.6 |
| 20260502233649 | 8 | 283 | 3.2 | 9.7 | 0.00 | 0.00 | 0.00 | 43 | 1014.6 |
| 20260502233131 | 8 | 280 | 3.2 | 9.7 | 0.00 | 0.00 | 0.00 | 44 | 1014.7 |
| 20260502232634 | 8 | 266 | 3.2 | 9.7 | 0.00 | 0.00 | 0.00 | 42 | 1014.6 |
| 20260502231649 | 8 | 302 | 4.8 | 12.9 | 0.00 | 0.00 | 0.00 | 43 | 1014.6 |
| 20260502231148 | 8 | 284 | 3.2 | 12.9 | 0.00 | 0.00 | 0.00 | 43 | 1014.7 |
| 20260502230631 | 8 | 308 | 3.2 | 9.7 | 0.00 | 0.00 | 0.00 | 43 | 1014.7 |
| 20260502230148 | 8 | 304 | 4.8 | 9.7 | 0.00 | 0.00 | 0.00 | 42 | 1014.7 |
| 20260502225631 | 8 | 243 | 3.2 | 9.7 | 0.00 | 0.00 | 0.00 | 43 | 1014.6 |
| 20260502225147 | 8 | 304 | 1.6 | 9.7 | 0.00 | 0.00 | 0.00 | 45 | 1014.6 |
| 20260502224650 | 8 | 278 | 3.2 | 11.3 | 0.00 | 0.00 | 0.00 | 44 | 1014.6 |
| 20260502224150 | 8 | 302 | 1.6 | 11.3 | 0.00 | 0.00 | 0.00 | 42 | 1014.7 |
| 20260502223633 | 8 | 252 | 1.6 | 11.3 | 0.00 | 0.00 | 0.00 | 43 | 1014.7 |
| 20260502223137 | 8 | 319 | 4.8 | 12.9 | 0.00 | 0.00 | 0.00 | 44 | 1014.7 |
| 20260502222640 | 7 | 276 | 4.8 | 19.3 | 0.00 | 0.00 | 0.00 | 44 | 1014.7 |
| 20260502222139 | 8 | 299 | 4.8 | 11.3 | 0.00 | 0.00 | 0.00 | 44 | 1014.7 |
| 20260502221642 | 7 | 307 | 3.2 | 11.3 | 0.00 | 0.00 | 0.00 | 44 | 1014.7 |
| 20260502221141 | 8 | 216 | 3.2 | 14.5 | 0.00 | 0.00 | 0.00 | 45 | 1014.7 |
| 20260502220645 | 8 | 330 | 8.0 | 14.5 | 0.00 | 0.00 | 0.00 | 43 | 1014.6 |
| 20260502220147 | 8 | 293 | 1.6 | 11.3 | 0.00 | 0.00 | 0.00 | 42 | 1014.6 |
| 20260502215649 | 8 | 271 | 1.6 | 11.3 | 0.00 | 0.00 | 0.00 | 42 | 1014.6 |
| 20260502215149 | 7 | 343 | 3.2 | 11.3 | 0.00 | 0.00 | 0.00 | 43 | 1014.7 |
| 20260502214652 | 7 | 289 | 1.6 | 19.3 | 0.00 | 0.00 | 0.00 | 45 | 1014.7 |
| 20260502214130 | 7 | 283 | 6.4 | 19.3 | 0.00 | 0.00 | 0.00 | 44 | 1014.6 |
| 20260502213634 | 7 | 307 | 3.2 | 12.9 | 0.00 | 0.00 | 0.00 | 45 | 1014.7 |
| 20260502213137 | 7 | 279 | 6.4 | 11.3 | 0.00 | 0.00 | 0.00 | 44 | 1014.6 |
| 20260502212637 | 7 | 248 | 3.2 | 14.5 | 0.00 | 0.00 | 0.00 | 44 | 1014.6 |
| 20260502212138 | 7 | 302 | 8.0 | 14.5 | 0.00 | 0.00 | 0.00 | 42 | 1014.7 |
| 20260502211642 | 8 | 326 | 8.0 | 14.5 | 0.00 | 0.00 | 0.00 | 42 | 1014.7 |
| 20260502211143 | 8 | 262 | 3.2 | 24.1 | 0.00 | 0.00 | 0.00 | 43 | 1014.6 |
| 20260502210646 | 7 | 295 | 11.3 | 24.1 | 0.00 | 0.00 | 0.00 | 42 | 1014.8 |
| 20260502210149 | 7 | 304 | 9.7 | 20.9 | 0.00 | 0.00 | 0.00 | 43 | 1014.8 |
| 20260502205632 | 7 | 279 | 4.8 | 19.3 | 0.00 | 0.00 | 0.00 | 43 | 1014.8 |
| 20260502205132 | 7 | 284 | 9.7 | 19.3 | 0.00 | 0.00 | 0.00 | 43 | 1014.8 |
| 20260502204634 | 7 | 281 | 6.4 | 22.5 | 0.00 | 0.00 | 0.00 | 43 | 1014.8 |
| 20260502204154 | 7 | 302 | 8.0 | 22.5 | 0.00 | 0.00 | 0.00 | 43 | 1014.7 |
| 20260502203657 | 7 | 297 | 6.4 | 16.1 | 0.00 | 0.00 | 0.00 | 43 | 1014.8 |
| 20260502203156 | 7 | 276 | 9.7 | 19.3 | 0.00 | 0.00 | 0.00 | 43 | 1014.9 |
| 20260502202639 | 7 | 300 | 9.7 | 20.9 | 0.00 | 0.00 | 0.00 | 44 | 1015.0 |
| 20260502202205 | 7 | 295 | 8.0 | 14.5 | 0.00 | 0.00 | 0.00 | 43 | 1015.0 |
| 20260502201646 | 7 | 310 | 6.4 | 19.3 | 0.00 | 0.00 | 0.00 | 44 | 1015.1 |
| 20260502201209 | 7 | 255 | 9.7 | 20.9 | 0.00 | 0.00 | 0.00 | 43 | 1015.1 |
| 20260502200650 | 7 | 300 | 4.8 | 20.9 | 0.00 | 0.00 | 0.00 | 44 | 1015.2 |
| 20260502200147 | 7 | 319 | 12.9 | 20.9 | 0.00 | 0.00 | 0.00 | 42 | 1015.2 |
| 20260502195650 | 7 | 15 | 4.8 | 14.5 | 0.00 | 0.00 | 0.00 | 42 | 1015.3 |
| 20260502195147 | 7 | 294 | 3.2 | 14.5 | 0.00 | 0.00 | 0.00 | 43 | 1015.3 |
| 20260502194650 | 7 | 313 | 6.4 | 14.5 | 0.00 | 0.00 | 0.00 | 44 | 1015.4 |
| 20260502194148 | 7 | 8 | 6.4 | 19.3 | 0.00 | 0.00 | 0.00 | 43 | 1015.5 |
| 20260502193633 | 7 | 356 | 8.0 | 16.1 | 0.00 | 0.00 | 0.00 | 43 | 1015.5 |